全球星 M091星 (GLOBALSTAR M091)

导读

GLOBALSTAR M091(全球星M091)是由全球星公司运营的低轨移动通信卫星,隶属于美国全球星卫星通信系统,该系统可向全球提供数字语音、数据传输、短信传真及跨网漫游等移动通信服务,且能与地面现有电信网络兼容。 这颗卫星于2011年7月13日发射,国际标识为2011-033C,目录编号37741,目前仍被持续观测,为全球移动通信覆盖提供空间段支撑。

Basic Information
目录编号:
37741
目录名称:
GLOBALSTAR M091
国际标识:
2011-033C
轨道中心:
EARTH
卫星名称:
全球星 M091星
卫星全名:
全球星 M091星 (GLOBALSTAR M091)
卫星状态:
在轨 (已飞行5539 天)
发射日期:
2011-07-13 UTC
国别 :
(GLOB)
星等 :
--
This satellite is enrolled in the Space Conjunction Data Service (SCDS) and the current flight risk assessment level is: No High Risk
Orbit Information
数据来源 国际轨道数据 AOE轨道数据
星历时间 2026-09-10T21:44:41+0800
17小时前
查看轨道信息
2026-09-10T06:00:00+0800
1天前
查看轨道信息
半长轴 7791.749km 7791.742km
偏心率 0.0000707 0.0000751
轨道倾角 52.002° 52.002°
近地点辐角 111.877° 89.993°
升交点赤经 341.966° 343.962°
平近点角 353.751° 273.065°
近地点 1413.061km 1413.019km
远地点 1414.163km 1414.191km
周期 114.081分钟 114.081分钟
每日圈数 12.622646 12.622661
Detailed Information
固有亮度:
5
最大亮度:
7.2
平衡模式:
三轴稳定
覆盖范围:
全球
运营商:
全球星公司
运营商所在国:
美国
使用方式:
暂无
Satellite Introduction
全球星星座由48颗卫星加8颗备份星组成。这些卫星分布在8个倾角为52度的圆形轨道平面上,每个轨道平面6颗卫星,另有1 颗备用星。轨道高度约为1414km,传输时延和处理时延小于300ms,整个系统的覆盖区为南北纬70度以内的地区。该卫星已退役。
2D Orbit Map
3D Orbit Map
Orbit Altitude Analysis Chart
Orbit Inclination Analysis Chart
Orbit Comprehensive Analysis Chart
View Comprehensive Chart
Conjunction Data List
Event ID Objects TCA Miss Dist (km) Collision Risk Probability Collision Risk Index (CRI) Action
CDM_260912-221001-966703-774122
2026-09-12T
22:10:00+0000
2.514 km
极远距离
1.669188E-6 低风险 0.39
CDM_260912-095302-291303-774123
2026-09-12T
09:53:11+0000
2.322 km
极远距离
1.247047E-6 低风险 0.37
Miss Distance Evolution Trend with All Objects
Collision Probability Evolution Trend with All Objects